Flag for Guyana Weather past 2 weeks in Linden, Guyana

Now
73 °F

Broken clouds.


Feels Like: 70 °F
Forecast: 73 / 88 °F
Wind: 2 mph from North

Location: Georgetown/Cheddi Jagan International Airport

Current Time: Aug 21, 2014 at 6:31:41 AM

Latest Report: Aug 21, 2014 at 6:00 AM


Visibility: N/A

Pressure: 29.89 "Hg

Humidity: 94%

Dew point: 72 °F

Location of LindenLocation

Historic Weather in Linden — Graph

°F

Linden temperature yesterday

Maximum temperature yesterday: 90 °F (at 2:00 PM)
Minimum temperature yesterday: 72 °F (at 3:00 AM)
Average temperature yesterday: 79 °F

Past Weeks' High & Low Weather Summary

 TemperatureHumidityPressure
High91 °F (Aug 7, 1:00 PM)100% (Aug 6, 5:00 AM)30.01 "Hg (Aug 6, 5:00 AM)
Low72 °F (Aug 11, 6:00 AM)52% (Aug 7, 1:00 PM)29.77 "Hg (Aug 18, 3:00 PM)
Average80 °F86%29.92 "Hg
* Reported Aug 6 5:00 AM — Aug 21 5:00 AM, Linden, Weather by CustomWeather, © 2014

Note: Actual official high and low records may vary slightly from our data, if they occured in-between our weather recording intervals... More about our weather records

Advertising

Linden weather history for previous 24 hours

 ConditionsComfort  
Time TempWeatherWind HumidityBarometerVisibility
5:00 AM
Aug 21
73 °FSprinkles. Passing clouds.No wind100%29.92 "Hg5 mi
2:00 AM73 °FLight rain. Passing clouds.5 mph94%29.92 "Hg5 mi
1:00 AM75 °FPassing clouds.No wind94%29.95 "HgN/A
12:00 AM75 °FPassing clouds.5 mph100%29.98 "HgN/A
11:00 PM
Aug 20
77 °FPassing clouds.5 mph94%29.98 "HgN/A
10:00 PM77 °FPassing clouds.7 mph94%29.98 "HgN/A
9:00 PM73 °FThunderstorms. Passing clouds.14 mph94%29.95 "Hg3 mi
8:30 PM73 °FThunderstorms. Passing clouds.14 mph94%29.98 "Hg2 mi
8:00 PM77 °FPassing clouds.7 mph94%29.95 "HgN/A
7:00 PM81 °FPassing clouds.12 mph89%29.89 "HgN/A
6:00 PM86 °FThunderstorms. Broken clouds.9 mph70%29.86 "Hg6 mi
5:00 PM88 °FThunderstorms. Scattered clouds.7 mph66%29.83 "HgN/A
4:00 PM90 °FScattered clouds.7 mph63%29.83 "HgN/A
3:00 PM90 °FPartly sunny.9 mph63%29.83 "HgN/A
2:00 PM90 °FBroken clouds.9 mph63%29.86 "HgN/A
1:00 PM88 °FBroken clouds.7 mph66%29.89 "HgN/A
12:00 PM88 °FBroken clouds.9 mph66%29.89 "HgN/A
11:00 AM86 °FBroken clouds.9 mph70%29.92 "HgN/A
10:00 AM82 °FSprinkles. Broken clouds.7 mph79%29.92 "HgN/A
9:00 AM77 °FSprinkles. Broken clouds.5 mph94%29.92 "Hg6 mi
8:00 AM75 °FSprinkles. Broken clouds.5 mph94%29.92 "Hg6 mi
7:00 AM72 °FBroken clouds.7 mph100%29.89 "Hg6 mi
6:00 AM72 °FLight rain. Broken clouds.5 mph94%29.89 "Hg4 mi
Weather by CustomWeather, © 2014

See weather overviewHow to use our weather pages